www.pogodaiklimat.ru
ПОГОДА в Кембридже
Время
и дата
21:55 30.11
22:15 30.11
22:35 30.11
22:55 30.11
23:15 30.11
23:35 30.11
23:55 30.11
00:15 01.12
00:35 01.12
00:55 01.12
01:15 01.12
01:35 01.12
01:55 01.12
02:15 01.12
02:35 01.12
02:55 01.12
03:15 01.12
03:35 01.12
03:55 01.12
04:15 01.12
04:35 01.12
04:55 01.12
05:15 01.12
05:35 01.12
05:55 01.12
06:15 01.12
06:35 01.12
06:55 01.12
07:15 01.12
07:35 01.12
07:55 01.12
08:15 01.12
08:35 01.12
08:55 01.12
09:15 01.12
09:35 01.12
09:55 01.12
10:15 01.12
10:35 01.12
10:55 01.12
11:15 01.12
11:35 01.12
11:55 01.12
12:15 01.12
12:35 01.12
12:55 01.12
13:15 01.12
13:35 01.12
Ветер
(напр.,м/с)
Видим. Явления Облачность Т
(С)
Тd
(С)
f
(%)
Тe
(С)
Тes
(С)
Комфортность P
(гПа)
Po
(гПа)
Тmin
(С)
Tmax
(С)
R
(мм)
R24
(мм)
S
(см)
З 4 16 км 10/10 1140 м 0.0 -6.1 63 -5 -5 993.7
З 5
{11}
16 км 10/10 1140 м -0.1 -6.7 61 -6 -6 993.7
З 5
{7}
16 км 10/10 1140 м -0.2 -6.6 62 -6 -6 993.7
ЮЗ 4 16 км 10/10 1140 м -0.5 -6.6 63 -6 -6 994.0
ЮЗ 3 16 км 10/10 1140 м -0.5 -6.8 62 -5 -5 994.3
З 4
{8}
16 км 10/10 1140 м -0.5 -6.8 62 -6 -6 994.7
ЮЗ 3 16 км 10/10 1080 м -0.7 -6.9 63 -5 -5 995.0
З 4
{8}
16 км 10/10 1080 м -0.8 -6.8 64 -6 -6 995.6
З 3
{9}
16 км 10/10 1140 м -1.4 -7.6 63 -6 -6 995.6
З 7
{10}
16 км 8/8 1140 м -1.8 -8.0 63 -9 -9 995.6 -1.8 +0.8
З 3
{9}
16 км 8/8 1140 м -1.7 -8.0 62 -6 -6 996.3
штиль 0 16 км 10/10 1080 м -1.8 -8.0 63 -2 -2 996.6
З 4 16 км 10/10 1080 м -1.8 -7.8 64 -7 -7 997.0
З 4
{7}
16 км 10/10 1080 м -2.0 -8.0 63 -7 -7 997.3
З 3
{7}
16 км 8/8 1080 м -2.1 -8.1 63 -7 -7 997.6
ЮЗ 2 16 км 10/10 1080 м -2.1 -7.7 65 -6 -6 998.0
З 2 16 км 10/10 1020 м -2.1 -7.8 65 -6 -6 998.3
З 2 16 км 10/10 1020 м -2.3 -7.6 67 -6 -6 998.6
ЮЗ 3 16 км 10/10 960 м -2.5 -7.5 68 -7 -7 998.9
З 3 16 км 10/10 960 м -2.7 -8.0 67 -8 -8 999.3
штиль 0 16 км 10/10 960 м -2.9 -7.7 69 -4 -4 999.6
З 4 16 км 8/8 960 м -3.0 -7.9 69 -9 -9 999.9
ЮЗ 2 16 км 5/5 900 м -3.1 -7.9 69 -7 -7 1000.3
ЮЗ 3 16 км 5/5 900 м -3.4 -7.9 71 -8 -8 1000.6
З 3 16 км 5/5 900 м -3.6 -8.0 71 -9 -9 1001.2
ЮЗ 3 16 км ясно -3.9 -8.0 73 -9 -9 1001.2
ЮЗ 3 16 км ясно -4.0 -7.9 74 -9 -9 1001.9
Ю 2 16 км ясно -4.4 -7.8 77 -8 -8 1001.9 -4.4 -1.7
ЮЗ 2 16 км ясно -4.5 -7.8 78 -9 -9 1002.2
штиль 0 16 км ясно -5.1 -8.0 80 -6 -6 1002.6
штиль 0 16 км ясно -5.1 -7.6 83 -6 -6 1002.9
ЮЗ 2 16 км ясно -4.6 -7.4 81 -9 -9 1003.2
ЮЗ 2 16 км ясно -3.6 -7.6 74 -8 -8 1003.5
ЮЗ 3 16 км ясно -3.1 -7.2 73 -8 -8 1003.9
З 4 16 км 5/5 690 м -2.7 -7.4 70 -8 -8 1004.5
ЮЗ 2 16 км 5/5 690 м -2.6 -7.7 68 -6 -6 1004.5
З 3 16 км ясно -2.3 -7.7 66 -7 -6 1004.5
ЮЗ 3 16 км ясно -1.7 -7.3 66 -6 -4 1004.5
ЮЗ 3 16 км ясно -1.5 -7.5 64 -6 -4 1004.9
ЮЗ 3 16 км ясно -1.1 -7.0 64 -6 -4 1005.2
З 3 16 км ясно -0.6 -6.8 63 -5 -2 1005.2
З 3 16 км ясно -0.4 -6.8 62 -5 -1 1004.9
ЮЗ 2 16 км ясно 0.0 -6.7 61 -3 +1 1004.5
З 2 16 км ясно +0.1 -6.6 61 -3 +2 1004.5
ЮЗ 2 16 км ясно +0.6 -6.6 58 -2 +2 1004.2
ЮЗ 4 16 км ясно +0.8 -6.6 58 -4 -1 1004.2 -5.9 +0.8
З 3 16 км ясно +1.3 -6.8 55 -3 +1 1003.5
З 2 16 км ясно +1.7 -6.6 54 -1 +4 1003.9
Местоположение метеостанции Cambridge Municipal Airport: широта 39.9750 долгота -81.5776 высота над уровнем моря 241 м.
В архиве по умолчанию представлена погода в Кембридже за последние 1-2 суток. Обновление информации о фактической погоде в базе происходит ежечасно! Архивные данные за месяц целиком и за предыдущие месяцы Вы можете получить, выбрав интересующий диапазон дат из раскрывающегося списка и нажав кнопку "Ввод!".
Внимание! Архив погоды МЕТАР в базе сайта по станциям, не включенным в климатический монитор, хранится не более 60 дней. Нет смысла пытаться выбрать более раннюю дату.
*Определитесь, кто Вы:
Внимание! Время в таблицах - местное (без учета летнего времени). Для получения всемирного времени необходимо вычесть поправку, которая равна -5 ч.
Смотрите также архив погоды в соседних городах и на ближайших метеорологических станциях:
Партнеры нашего сайта:      
Пояснения к столбцам:
  • Ветер - указаны скорость ветра в м/с - средняя за 10 мин, порывы в срок и между сроками (в фигурных скобках) и направление, откуда дует ветер: С - северный,
  • СВ - северо-восточный, В - восточный, ЮВ - юго-восточный, Ю - южный, ЮЗ - юго-западный, З - западный, СЗ - северо-западный.
  • Видимость - горизонтальная дальность видимости в метрах или километрах. При видимости от 1 до 10 км при отсутствии осадков обычно наблюдается дымка, при ухудшении видимости до 1 км и менее - туман. В сухую погоду видимость может ухудшаться дымом, пылью или мглою.
  • Явления - указаны атмосферные явления, наблюдавшиеся в срок или в последний час перед сроком; фигурными скобками обозначены явления, наблюдавшиеся между сроками (за 1-3 часа до срока); квадратными скобками обозначены град или гололедные отложения с указанием их диаметра в мм.
  • Облачность - указаны через наклонную черту общая и нижняя облачность в баллах и высота нижней границы облаков в метрах; квадратными скобками обозначены формы облаков: Ci - перистые, Cs - перисто-слоистые, Cc - перисто-кучевые, Ac - высококучевые, As - высокослоистые, Sc - слоисто-кучевые, Ns - слоисто-дождевые, Cu - кучевые, Cb - кучево-дождевые. Подробнее классификацию облаков см. в Атласе облаков (PDF).
  • T - Температура воздуха - температура, измеренная на высоте 2 м над землей.
  • Td - Температура точки росы - температура, при понижении до которой содержащийся в воздухе водяной пар достигнет насыщения.
  • f - Относительная влажность воздуха - влажноcть воздуха, измеренная на высоте 2 м над землей.
  • Te - Эффективная температура - температура, которую ощущает одетый по сезону человек в тени. Характеристика душности погоды. При расчете учитывается влияние влажности воздуха и скорости ветра на теплоощущения человека.
  • Tes - Эффективная температура на солнце - температура, которую ощущает человек, с поправкой на солнечный нагрев. Характеристика знойности погоды. Зависит от высоты солнца над горизонтом, облачности и скорости ветра. Ночью, в пасмурную погоду, а также при ветре 12 м/с и более поправка равна нулю.
  • P - Атмосферное давление - приведенное к уровню моря атмосферное давление.
  • Po - Атмосферное давление - измеренное на уровне метеостанции атмосферное давление.
  • Tmin - Минимальная температура - минимум температуры воздуха на высоте 2 м над землей.
  • Tmax - Максимальная температура - максимум температуры воздуха на высоте 2 м над землей.
  • R - Количество осадков - Количество выпавших осадков за период времени, мм. При наведении курсора мыши на число - период времени, за который выпало указанное количество осадков.
  • R24 - Количество осадков - Количество выпавших осадков за 24 часа, мм.
  • S - Снежный покров - Высота снежного покрова, см. При наведении курсора мыши на число - состояние снежного покрова и степень покрытия местности в баллах.